| time (UTC) | temp F | wind direction | speed MPH | gust MPH | rain 1hr in | rain 24hr in | rain mn in | humidity % | barometer mb |
| 20260503031516 | 43 | 0.0 | 0.0 | 0.00 | 0.00 | 0.00 | 20 | 1022.3 | |
| 20260503030516 | 44 | 0.0 | 1.0 | 0.00 | 0.00 | 0.00 | 20 | 1022.3 | |
| 20260503025516 | 44 | 0.0 | 0.0 | 0.00 | 0.00 | 0.00 | 20 | 1022.3 | |
| 20260503024516 | 45 | 203 | 1.0 | 2.0 | 0.00 | 0.00 | 0.00 | 19 | 1021.7 |
| 20260503023536 | 45 | 203 | 1.0 | 3.0 | 0.00 | 0.00 | 0.00 | 20 | 1022.2 |
| 20260503022516 | 46 | 203 | 1.0 | 2.0 | 0.00 | 0.00 | 0.00 | 22 | 1022.3 |
| 20260503021516 | 47 | 0.0 | 2.0 | 0.00 | 0.00 | 0.00 | 22 | 1022.4 | |
| 20260503020536 | 49 | 0.0 | 2.0 | 0.00 | 0.00 | 0.00 | 21 | 1023.1 | |
| 20260503015516 | 51 | 0.0 | 2.0 | 0.00 | 0.00 | 0.00 | 21 | 1023.5 | |
| 20260503014536 | 53 | 0.0 | 1.0 | 0.00 | 0.00 | 0.00 | 20 | 1023.6 | |
| 20260503013515 | 55 | 0.0 | 2.0 | 0.00 | 0.00 | 0.00 | 19 | 1024.2 | |
| 20260503012516 | 55 | 0.0 | 2.0 | 0.00 | 0.00 | 0.00 | 20 | 1024.2 | |
| 20260503011516 | 56 | 203 | 1.0 | 4.0 | 0.00 | 0.00 | 0.00 | 19 | 1024.2 |
| 20260503010515 | 56 | 203 | 2.0 | 6.0 | 0.00 | 0.00 | 0.00 | 19 | 1024.1 |
| 20260503005515 | 56 | 203 | 2.0 | 5.0 | 0.00 | 0.00 | 0.00 | 20 | 1024.1 |
| 20260503004515 | 55 | 203 | 2.0 | 6.0 | 0.00 | 0.00 | 0.00 | 20 | 1023.6 |
| 20260503003515 | 54 | 203 | 1.0 | 4.0 | 0.00 | 0.00 | 0.00 | 22 | 1023.7 |
| 20260503002516 | 52 | 203 | 1.0 | 3.0 | 0.00 | 0.00 | 0.00 | 24 | 1023.2 |
| 20260503001535 | 52 | 225 | 2.0 | 6.0 | 0.00 | 0.00 | 0.00 | 24 | 1023.8 |
| 20260503000515 | 52 | 203 | 2.0 | 7.0 | 0.00 | 0.00 | 0.00 | 23 | 1023.9 |
| 20260502235515 | 54 | 203 | 2.0 | 8.0 | 0.00 | 0.00 | 0.00 | 22 | 1023.8 |
| 20260502234515 | 55 | 315 | 1.0 | 3.0 | 0.00 | 0.00 | 0.00 | 21 | 1023.9 |
| 20260502233515 | 57 | 0.0 | 4.0 | 0.00 | 0.00 | 0.00 | 21 | 1024.8 | |
| 20260502232515 | 59 | 135 | 1.0 | 3.0 | 0.00 | 0.00 | 0.00 | 20 | 1025.4 |
| 20260502231515 | 59 | 180 | 2.0 | 8.0 | 0.00 | 0.00 | 0.00 | 22 | 1026.2 |
| 20260502230515 | 59 | 180 | 3.0 | 8.0 | 0.00 | 0.00 | 0.00 | 22 | 1026.3 |
| 20260502225515 | 58 | 203 | 3.0 | 8.0 | 0.00 | 0.00 | 0.00 | 23 | 1025.5 |
| 20260502224515 | 56 | 180 | 2.0 | 8.0 | 0.00 | 0.00 | 0.00 | 22 | 1025.2 |
| 20260502223517 | 55 | 158 | 1.0 | 6.0 | 0.00 | 0.00 | 0.00 | 23 | 1024.6 |
| 20260502222557 | 55 | 180 | 2.0 | 7.0 | 0.00 | 0.00 | 0.00 | 23 | 1025.2 |
| 20260502221517 | 56 | 158 | 1.0 | 6.0 | 0.00 | 0.00 | 0.00 | 24 | 1025.4 |
| 20260502220537 | 57 | 203 | 4.0 | 10.0 | 0.00 | 0.00 | 0.00 | 22 | 1025.4 |
| 20260502215517 | 56 | 180 | 3.0 | 9.0 | 0.00 | 0.00 | 0.00 | 23 | 1025.7 |
| 20260502214517 | 56 | 158 | 3.0 | 10.0 | 0.00 | 0.00 | 0.00 | 23 | 1026.0 |
| 20260502213517 | 57 | 180 | 4.0 | 12.0 | 0.00 | 0.00 | 0.00 | 23 | 1026.2 |
| 20260502212517 | 56 | 180 | 1.0 | 6.0 | 0.00 | 0.00 | 0.00 | 28 | 1026.5 |
| 20260502211517 | 57 | 158 | 2.0 | 8.0 | 0.00 | 0.00 | 0.00 | 22 | 1026.5 |
| 20260502210517 | 58 | 135 | 2.0 | 6.0 | 0.00 | 0.00 | 0.00 | 23 | 1027.5 |
| 20260502205517 | 55 | 225 | 3.0 | 12.0 | 0.00 | 0.00 | 0.00 | 30 | 1026.3 |
| 20260502204517 | 55 | 338 | 1.0 | 7.0 | 0.00 | 0.00 | 0.00 | 24 | 1026.1 |
| 20260502203517 | 55 | 90 | 3.0 | 8.0 | 0.00 | 0.00 | 0.00 | 22 | 1026.0 |
| 20260502202517 | 56 | 225 | 2.0 | 4.0 | 0.00 | 0.00 | 0.00 | 23 | 1026.9 |
| 20260502201517 | 56 | 135 | 2.0 | 11.0 | 0.00 | 0.01 | 0.00 | 28 | 1027.1 |
| 20260502200517 | 54 | 158 | 3.0 | 8.0 | 0.00 | 0.01 | 0.00 | 28 | 1026.5 |
| 20260502195517 | 54 | 158 | 3.0 | 9.0 | 0.00 | 0.02 | 0.00 | 25 | 1026.5 |
| 20260502194516 | 52 | 135 | 2.0 | 9.0 | 0.00 | 0.02 | 0.00 | 29 | 1026.1 |
| 20260502193516 | 51 | 0 | 4.0 | 9.0 | 0.00 | 0.04 | 0.00 | 23 | 1026.0 |
| 20260502192516 | 51 | 0 | 1.0 | 4.0 | 0.00 | 0.05 | 0.00 | 22 | 1026.0 |
| 20260502191516 | 52 | 0.0 | 2.0 | 0.00 | 0.06 | 0.00 | 22 | 1026.2 | |
| 20260502190517 | 51 | 248 | 1.0 | 2.0 | 0.00 | 0.08 | 0.00 | 22 | 1026.6 |
| 20260502185537 | 50 | 338 | 1.0 | 3.0 | 0.00 | 0.09 | 0.00 | 22 | 1025.9 |
| 20260502184517 | 50 | 68 | 2.0 | 5.0 | 0.00 | 0.11 | 0.00 | 24 | 1026.7 |
| 20260502183516 | 49 | 293 | 1.0 | 4.0 | 0.00 | 0.13 | 0.00 | 26 | 1026.1 |
| 20260502182516 | 50 | 203 | 2.0 | 5.0 | 0.00 | 0.15 | 0.00 | 30 | 1027.2 |
| 20260502181516 | 49 | 158 | 3.0 | 8.0 | 0.00 | 0.17 | 0.00 | 30 | 1026.7 |
| 20260502180516 | 49 | 270 | 1.0 | 4.0 | 0.00 | 0.19 | 0.00 | 27 | 1026.2 |
| 20260502170516 | 45 | 225 | 2.0 | 6.0 | 0.00 | 0.30 | 0.00 | 29 | 1026.5 |
| 20260502163516 | 43 | 0.0 | 2.0 | 0.00 | 0.31 | 0.00 | 30 | 1025.9 | |
| 20260502162536 | 42 | 338 | 2.0 | 6.0 | 0.00 | 0.31 | 0.00 | 29 | 1026.0 |
| 20260502161516 | 42 | 0.0 | 2.0 | 0.00 | 0.31 | 0.00 | 30 | 1026.7 | |
| 20260502160516 | 41 | 270 | 3.0 | 7.0 | 0.00 | 0.31 | 0.00 | 29 | 1025.9 |
| 20260502151516 | 39 | 0.0 | 3.0 | 0.00 | 0.31 | 0.00 | 37 | 1025.7 | |
| 20260502150516 | 38 | 0 | 1.0 | 5.0 | 0.00 | 0.31 | 0.00 | 38 | 1025.0 |
| 20260502130515 | 30 | 293 | 2.0 | 3.0 | 0.00 | 0.33 | 0.00 | 52 | 1024.4 |
| 20260502123535 | 30 | 293 | 1.0 | 3.0 | 0.00 | 0.33 | 0.00 | 53 | 1024.3 |
| 20260502122515 | 30 | 293 | 3.0 | 4.0 | 0.00 | 0.33 | 0.00 | 54 | 1024.3 |
| 20260502121516 | 31 | 0.0 | 0.0 | 0.00 | 0.33 | 0.00 | 51 | 1024.8 | |
| 20260502120515 | 32 | 68 | 1.0 | 3.0 | 0.00 | 0.33 | 0.00 | 48 | 1025.5 |
| 20260502115535 | 32 | 90 | 1.0 | 4.0 | 0.00 | 0.33 | 0.00 | 47 | 1025.4 |
| 20260502114515 | 32 | 68 | 3.0 | 7.0 | 0.00 | 0.33 | 0.00 | 48 | 1024.8 |
| 20260502113515 | 31 | 203 | 1.0 | 6.0 | 0.00 | 0.33 | 0.00 | 51 | 1024.1 |
| 20260502112515 | 30 | 0.0 | 2.0 | 0.00 | 0.33 | 0.00 | 53 | 1024.2 | |
| 20260502111535 | 30 | 270 | 1.0 | 3.0 | 0.00 | 0.33 | 0.00 | 54 | 1024.9 |
| 20260502110515 | 30 | 270 | 1.0 | 3.0 | 0.00 | 0.33 | 0.00 | 53 | 1024.9 |
| 20260502105515 | 31 | 270 | 1.0 | 3.0 | 0.00 | 0.33 | 0.00 | 52 | 1024.9 |
| 20260502104515 | 31 | 0.0 | 0.0 | 0.00 | 0.33 | 0.00 | 52 | 1026.2 | |
| 20260502103517 | 31 | 270 | 1.0 | 2.0 | 0.00 | 0.33 | 0.00 | 52 | 1026.3 |
| 20260502102517 | 31 | 0.0 | 2.0 | 0.00 | 0.33 | 0.00 | 53 | 1026.4 | |
| 20260502101518 | 31 | 270 | 1.0 | 2.0 | 0.00 | 0.33 | 0.00 | 52 | 1027.1 |
| 20260502100517 | 31 | 0.0 | 1.0 | 0.00 | 0.33 | 0.00 | 53 | 1027.1 | |
| 20260502091517 | 30 | 270 | 2.0 | 3.0 | 0.00 | 0.33 | 0.00 | 55 | 1026.3 |
| 20260502090537 | 30 | 270 | 3.0 | 4.0 | 0.00 | 0.33 | 0.00 | 54 | 1026.4 |
| 20260502071516 | 31 | 248 | 2.0 | 3.0 | 0.00 | 0.33 | 0.00 | 55 | 1025.9 |
| 20260502070637 | 31 | 248 | 2.0 | 2.0 | 0.00 | 0.33 | 0.00 | 55 | 1026.1 |
| 20260502065536 | 31 | 0.0 | 0.0 | 0.00 | 0.33 | 0.00 | 56 | 1026.1 | |
| 20260502064516 | 31 | 0.0 | 0.0 | 0.00 | 0.33 | 0.00 | 56 | 1025.5 | |
| 20260502063516 | 32 | 0.0 | 0.0 | 0.00 | 0.33 | 0.00 | 56 | 1026.3 | |
| 20260502062517 | 32 | 248 | 1.0 | 2.0 | 0.00 | 0.33 | 0.00 | 53 | 1026.2 |
| 20260502061536 | 31 | 225 | 2.0 | 3.0 | 0.00 | 0.33 | 0.00 | 58 | 1025.8 |
| 20260502060516 | 31 | 0.0 | 0.0 | 0.00 | 0.33 | 0.00 | 57 | 1025.9 | |
| 20260502055517 | 31 | 0.0 | 0.0 | 0.00 | 0.33 | 0.33 | 57 | 1026.0 | |
| 20260502054517 | 31 | 225 | 1.0 | 2.0 | 0.00 | 0.33 | 0.33 | 61 | 1026.6 |
| 20260502053517 | 31 | 225 | 2.0 | 3.0 | 0.00 | 0.33 | 0.33 | 62 | 1025.9 |
| 20260502052517 | 31 | 225 | 1.0 | 3.0 | 0.00 | 0.33 | 0.33 | 64 | 1025.8 |
| 20260502051517 | 31 | 225 | 1.0 | 3.0 | 0.00 | 0.33 | 0.33 | 65 | 1024.5 |
| 20260502050517 | 31 | 225 | 1.0 | 2.0 | 0.00 | 0.33 | 0.33 | 65 | 1024.4 |
| 20260502045517 | 31 | 225 | 1.0 | 3.0 | 0.00 | 0.33 | 0.33 | 64 | 1024.4 |
| 20260502044517 | 31 | 225 | 1.0 | 2.0 | 0.00 | 0.33 | 0.33 | 63 | 1023.7 |
| 20260502043517 | 32 | 248 | 1.0 | 2.0 | 0.00 | 0.33 | 0.33 | 60 | 1024.2 |
| 20260502042517 | 32 | 0.0 | 0.0 | 0.00 | 0.33 | 0.33 | 59 | 1024.1 | |
| 20260502041517 | 33 | 0.0 | 0.0 | 0.00 | 0.33 | 0.33 | 54 | 1024.1 | |
| 20260502040517 | 33 | 0.0 | 0.0 | 0.00 | 0.33 | 0.33 | 58 | 1024.2 | |
| 20260502035517 | 34 | 0.0 | 0.0 | 0.00 | 0.33 | 0.33 | 58 | 1024.7 | |
| 20260502034517 | 34 | 0.0 | 0.0 | 0.00 | 0.33 | 0.33 | 59 | 1024.7 | |
| 20260502033517 | 34 | 0.0 | 0.0 | 0.00 | 0.33 | 0.33 | 60 | 1024.6 | |
| 20260502032517 | 34 | 0.0 | 2.0 | 0.00 | 0.33 | 0.33 | 61 | 1024.6 |